#timestamp,LO_Frequency,Hit,StdDev 
1692658815.8,286046993.3,Y
1692658835.6,286046996.9,P
1692658855.4,286046997.7,P
1692658875.3,286046996.6,P
1692658895.1,286046997.2,Y
1692658915.8,286047002.0,P
1692658935.7,286047004.0,N
1692658955.5,286047001.9,N
1692658975.3,286047002.1,N
1692658995.2,286047001.9,N
1692659015.0,286047002.1,N
1692659015.9,286047002.1,N
1692659035.7,286047002.2,N
1692659055.6,286047002.3,N
1692659075.4,286047004.4,N
1692659095.2,286047001.8,N
1692659115.1,286047001.8,N
1692659116.0,286047001.8,N
1692659135.8,286047012.9,Y
1692659155.7,286047021.9,P
1692659175.5,286047012.5,N
1692659195.3,286047008.7,N
1692659215.2,286047006.4,N
1692659235.9,286047004.9,N
1692659255.7,286047005.3,N
1692659275.6,286047003.8,N
1692659295.4,286047004.2,N
1692659315.2,286047003.7,N
1692659335.1,286047001.6,N
1692659336.0,286047001.6,N
1692659355.8,286047001.6,N
1692659375.6,286047002.2,N
1692659395.5,286047000.9,N
1692659415.3,286047000.6,N
1692659435.1,286046998.4,N
1692659455.9,286047001.2,N
1692659475.7,286046998.9,N
1692659495.5,286047000.8,N
1692659515.4,286046998.7,N
1692659535.2,286046998.5,N
1692659555.0,286046998.3,N
1692659555.9,286046998.3,N
1692659575.8,286046999.5,N
1692659595.6,286047006.1,N
1692659615.4,286047001.5,N
1692659635.3,286047001.0,N
1692659655.1,286047000.9,N
1692659656.0,286047000.9,N
1692659675.8,286047001.2,N
1692659695.7,286046998.1,N
1692659715.5,286047000.5,N
1692659735.3,286046998.6,N
1692659755.2,286046999.2,N
1692659775.9,286046999.0,N
1692659795.7,286046998.5,N
1692659815.6,286047001.2,N
1692659835.4,286047000.8,N
1692659855.2,286047000.7,N
1692659875.1,286046998.9,N
1692659876.0,286046998.9,N
1692659895.8,286046999.3,N
1692659915.6,286046996.8,N
1692659935.5,286046997.0,N
1692659955.3,286046996.8,N
1692659975.1,286046997.4,N
1692659995.9,286047005.5,N
1692660015.7,286047000.1,N
1692660035.5,286046999.4,N
1692660055.4,286046999.6,N
1692660075.2,286046998.0,N
1692660095.0,286046996.8,N
1692660095.9,286046996.8,N
1692660115.8,286046999.5,N
1692660135.6,286046998.2,N
1692660155.4,286046998.3,N
1692660175.3,286046996.6,N
1692660195.1,286046996.8,N
1692660215.8,286046997.2,N
1692660235.7,286046998.0,N
1692660255.5,286046997.9,N
1692660275.3,286046995.4,N
1692660295.2,286046997.5,N
1692660315.0,286046997.2,N
1692660315.9,286046997.2,N
1692660335.7,286046996.8,N
1692660355.6,286047001.8,N
1692660375.4,286047001.1,N
1692660395.2,286046997.4,N
1692660415.1,286046994.9,N
1692660416.0,286046994.9,N
1692660435.8,286046997.9,N
1692660455.7,286046997.7,N
1692660475.5,286046997.9,N
1692660495.3,286046997.0,N
1692660515.2,286046997.8,N
1692660535.9,286046997.5,N
1692660555.7,286046997.9,N
1692660575.6,286046998.0,N
1692660595.4,286046997.5,N
1692660615.2,286046995.4,Y
1692660635.1,286046998.2,P
1692660636.0,286046998.2,P
1692660655.8,286046999.3,N
1692660675.6,286046999.3,N
1692660695.5,286046999.1,N
1692660715.3,286046999.4,N
1692660735.1,286046998.6,N
1692660755.9,286047000.3,N
1692660775.7,286046998.9,N
1692660795.5,286046998.3,N
1692660815.4,286046998.8,N
1692660835.2,286046998.9,N
1692660855.0,286046998.6,N
1692660855.9,286046998.6,N
1692660875.8,286047004.0,Y
1692660895.6,286047002.2,P
1692660915.5,286046999.8,N
1692660935.3,286046999.7,N
1692660955.1,286047000.3,N
1692660975.9,286047000.5,N
1692660995.7,286046999.7,N
1692661015.5,286047002.4,N
1692661035.4,286047001.5,N
1692661055.2,286047003.9,Y
1692661075.0,286047002.2,P
1692661075.9,286047002.2,N
1692661095.8,286047002.3,N
1692661115.6,286047002.0,N
1692661135.4,286046999.8,N
1692661155.3,286047000.2,N
1692661175.1,286047002.7,N
1692661176.0,286047002.7,N
1692661195.8,286047000.2,N
1692661215.7,286047000.1,N
1692661235.5,286047002.7,N
1692661255.3,286046999.9,N
1692661275.2,286047000.3,N
1692661295.9,286047001.9,N
1692661315.7,286047002.6,N
1692661335.6,286047016.7,Y
1692661355.4,286047010.2,P
1692661375.2,286047008.0,N
1692661395.1,286047006.1,N
1692661396.0,286047006.1,N
1692661415.8,286047006.7,N
1692661435.6,286047005.5,N
1692661455.5,286047003.8,N
1692661475.3,286047001.4,N
1692661495.1,286047004.4,N
1692661515.9,286047002.5,N
1692661535.7,286047001.4,N
1692661555.5,286047001.6,N
1692661575.4,286047002.1,N
1692661595.2,286047002.6,N
1692661615.0,286047002.1,N
1692661615.9,286047002.1,N
1692661635.8,286046999.8,N
1692661655.6,286047001.1,N
1692661675.4,286047001.6,N
1692661695.3,286047000.2,N
1692661715.1,286047000.2,N
1692661735.8,286046998.2,N
1692661755.7,286046999.9,N
1692661775.5,286046998.2,N
1692661795.3,286047001.0,N
1692661815.2,286047002.5,N
1692661835.0,286047040.8,Y
1692661835.9,286047040.8,P
1692661855.7,286047024.3,N
1692661875.6,286047016.2,N
1692661895.4,286047011.1,N
1692661915.2,286047008.2,N
1692661935.1,286047005.1,N
1692661936.0,286047005.1,N
1692661955.8,286047003.5,N
1692661975.6,286047002.1,N
1692661995.5,286047000.0,N
1692662015.3,286046998.3,N
1692662035.1,286046998.8,N
1692662055.9,286046996.6,N
1692662075.7,286046997.2,N
1692662095.5,286046997.5,N
1692662115.4,286046996.8,N
1692662135.2,286046994.9,N
1692662155.0,286046995.3,N
1692662155.9,286046995.3,N
1692662175.8,286046995.4,N
1692662195.6,286046996.0,N
1692662215.4,286046995.8,N
1692662235.3,286046995.7,N
1692662255.1,286046993.6,N
1692662275.8,286046993.5,N
1692662295.7,286046996.2,N
1692662315.5,286046996.3,N
1692662335.3,286046993.5,N
1692662355.2,286046994.2,N
1692662375.0,286046991.7,N
1692662375.9,286046991.7,N
1692662395.8,286046994.4,N
